This is the latest recevied weather packets stored in our database for station/object WE3WEE. If no packets are shown the sender has not sent any weather packets the latest 10 day(s).
| Time | Temp. | Humidity | Pressure | Rain* | Wind** | Luminosity | Snow |
|---|---|---|---|---|---|---|---|
| 1777901810 | 12.78° C | 55% | 1012.8 hPa | 0 mm | - | - | - |
| 1777901507 | 12.78° C | 56% | 1012.8 hPa | 0 mm | - | - | - |
| 1777901204 | 12.78° C | 51% | 1012.8 hPa | 0 mm | - | - | - |
| 1777900902 | 12.22° C | 59% | 1012.8 hPa | 0 mm | - | - | - |
| 1777900599 | 11.67° C | 55% | 1012.8 hPa | 0 mm | - | - | - |
| 1777900296 | 11.11° C | 59% | 1012.8 hPa | 0 mm | - | - | - |
| 1777899992 | 11.11° C | 58% | 1012.8 hPa | 0 mm | - | - | - |
| 1777899689 | 10.56° C | 60% | 1012.8 hPa | 0 mm | - | - | - |
| 1777899387 | 10° C | 62% | 1012.8 hPa | 0 mm | - | - | - |
| 1777899084 | 10° C | 62% | 1012.8 hPa | 0 mm | - | - | - |
| 1777898781 | 10° C | 62% | 1012.8 hPa | 0 mm | - | - | - |
| 1777898479 | 10° C | 62% | 1012.8 hPa | 0 mm | - | - | - |
| 1777898176 | 10° C | 65% | 1013.8 hPa | 0 mm | - | - | - |
| 1777897874 | 10.56° C | 67% | 1013.8 hPa | 0 mm | - | - | - |
| 1777897569 | 10.56° C | 67% | 1013.8 hPa | 0 mm | - | - | - |
| 1777897265 | 10.56° C | 61% | 1012.8 hPa | 0 mm | - | - | - |
| 1777896961 | 10.56° C | 60% | 1012.8 hPa | 0 mm | - | - | - |
| 1777896658 | 10.56° C | 63% | 1012.8 hPa | 0 mm | - | - | - |
| 1777896355 | 10.56° C | 60% | 1012.8 hPa | 0 mm | - | - | - |
| 1777896053 | 10.56° C | 66% | 1012.8 hPa | 0 mm | - | - | - |
| 1777895751 | 10.56° C | 67% | 1012.8 hPa | 0 mm | - | - | - |
| 1777895448 | 11.11° C | 65% | 1012.8 hPa | 0 mm | - | - | - |
| 1777895146 | 11.11° C | 61% | 1012.8 hPa | 0 mm | - | - | - |
| 1777894843 | 11.11° C | 64% | 1012.8 hPa | 0 mm | - | - | - |
| 1777894539 | 10.56° C | 70% | 1012.8 hPa | 0 mm | - | - | - |
* Rain latest hour (hover to see other rain measurements)
** Current wind speed in m/s (hover to see current wind gust speed)